Location: Unspecified
(0.0000°N, 0.0000°E)
Time: 14:57:25
(UTC+00:00)

deb Delta 126 - Pass Details

Date: 23 February 2026
Orbit: 1458 x 1580 km, 101.9° (Epoch: 6 March)

Event Time Altitude Azimuth Distance (km) Brightness Sun altitude
Rises 04:06:45 0° 4° (N) 4,751 ? -31.1°
Reaches altitude 10° 04:09:43 10° 359° (N) 3,772 ? -30.4°
Enters shadow 04:16:35 46° 317° (NW) 2,017 ? -28.7°
Exits shadow 04:21:14 38° 239° (WSW) 2,233 ? -27.6°
Drops below altitude 10° 04:26:43 10° 213° (SSW) 3,751 ? -26.2°
Sets 04:29:41 0° 208° (SSW) 4,723 ? -25.5°
